カタログに戻る

NIMBUS 2 DEB

運用中PO
NORAD 28200·DEBRIS·🇺🇸 United States

打ち上げ May 15, 1966 から Vandenberg Space Force Base

Loading…

次のパス (今後24時間)

TLE

最新Source: Space-Track

元期: Sep 14, 2026, 10:51 UTC

1 28200U 66040N   26257.45221161 -.00002987  00000-0 -67368-2 0  9992
2 28200  99.6437 334.3003 0055726 152.0147 276.3234 13.25079515143477

AllMySatでNIMBUS 2 DEBをリアルタイム追跡

Download on the App Store